Regional Weather Roundup
Issued by NWS

Home | Current Version | Previous Version | Graphics & Text | Print | Product List | Glossary On
Versions: 1 2 3 4 5 6 7 8 9 10 11 12 13 14 15 16 17 18 19 20 21 22 23 24 25 26 27 28 29 30 31 32 33 34 35 36 37 38 39 40 41 42 43 44 45 46 47 48 49 50
000
ASUS43 KOAX 250902
RWRNE

WEATHER ROUNDUP FOR NEBRASKA
NATIONAL WEATHER SERVICE OMAHA NE
400 AM CDT MON MAY 25 2015

NOTES: SATELLITE DATA IS BEING USED TO AUGMENT CLOUD COVER ABOVE
       12000 FEET.
       "FAIR" INDICATES FEW OR NO CLOUDS BELOW 12,000 FEET WITH NO
       SIGNIFICANT WEATHER AND/OR OBSTRUCTIONS TO VISIBILITY.

  * THESE STATIONS DO NOT REPORT WEATHER SUCH AS RAIN...SNOW OR FOG.

NEZ001>004-019>022-054>056-251000-
NEBRASKA PANHANDLE

CITY           SKY/WX    TMP DP  RH WIND       PRES   REMARKS
SCOTTSBLUFF    CLOUDY    51  50  96 W7        29.82S
ALLIANCE       LGT RAIN  51  49  92 W6        29.77F
CHADRON        CLOUDY    51  49  92 W6        29.81S
SIDNEY         LGT RAIN  49  48  97 NW6       29.80F
$$

NEZ057>060-069>072-079>082-251000-
SOUTHWEST NEBRASKA

CITY           SKY/WX    TMP DP  RH WIND       PRES   REMARKS
NORTH PLATTE   CLOUDY    53  51  93 SW9       29.77F
IMPERIAL       CLOUDY    52  49  89 SE5       29.79R
LEXINGTON      CLOUDY    53  52  95 W6        29.76R
MCCOOK         CLOUDY    54  52  93 W10       29.79S
$$

NEZ005>010-023>029-035>040-094-251000-
NORTH CENTRAL NEBRASKA

CITY           SKY/WX    TMP DP  RH WIND       PRES   REMARKS
VALENTINE      CLOUDY    57  55  94 NE5       29.75F
AINSWORTH      FOG       56  56 100 NE5       29.75F VSB 1/4
BROKEN BOW     PTCLDY    51  50  96 N7        29.71F
ORD            CLOUDY    57  56  96 NW5       29.73F FOG
$$

NEZ041-046>049-061>064-073>077-083>087-251000-
SOUTH CENTRAL NEBRASKA

CITY           SKY/WX    TMP DP  RH WIND       PRES   REMARKS
GRAND ISLAND   MOCLDY    57  56  96 E6        29.74F
HASTINGS       CLOUDY    58  56  93 W6        29.73F
KEARNEY *      MOCLDY    55  52  88 CALM      29.74S
$$

NEZ011>018-030>034-042>045-251000-
NORTHEAST NEBRASKA

CITY           SKY/WX    TMP DP  RH WIND       PRES   REMARKS
NORFOLK        FOG       56  56 100 CALM      29.75R VSB 1/4
BLAIR          CLOUDY    63  59  88 S6        29.76S
COLUMBUS *     PTCLDY    57  52  82 E5        29.77F
FREMONT        CLOUDY    63  60  91 S3        29.76F
TEKAMAH        LGT RAIN  62  61  96 S7        29.74F
$$

NEZ050>053-065>068-078-088>093-251000-
SOUTHEAST NEBRASKA

CITY           SKY/WX    TMP DP  RH WIND       PRES   REMARKS
LINCOLN        CLOUDY    60  59  96 CALM      29.77F
OMAHA EPPLEY   CLOUDY    64  61  90 S7        29.76S
PLATTSMOUTH    CLOUDY    61  59  94 S6        29.77F
$$

NEZ044-045-051>053-067-251000-
OMAHA AREA

CITY           SKY/WX    TMP DP  RH WIND       PRES   REMARKS
OMAHA EPPLEY   CLOUDY    64  61  90 S7        29.76S
BLAIR          CLOUDY    63  59  88 S6        29.76S
FREMONT        CLOUDY    63  60  91 S3        29.76F
OFFUTT AFB     CLOUDY    61  60  96 SE2       29.75F
PLATTSMOUTH    CLOUDY    61  59  94 S6        29.77F
$$



USA.gov is the U.S. government's official web portal to all federal, state and local government web resources and services.